Weather History for KGSH - November, 2013

Change the Weather History Date:

Wednesday, November 27, 2013

  Actual Average Record
Temperature  
Mean Temperature 26 °F -  
Max Temperature 28 °F 44 °F 66 °F (1990)
Min Temperature 23 °F 32 °F 12 °F (2002)
Degree Days  
Heating Degree Days 40    
Moisture  
Dew Point 20 °F    
Average Humidity 82    
Maximum Humidity 93    
Minimum Humidity 69    
Precipitation  
Precipitation 0.00 in - - ()
Sea Level Pressure  
Sea Level Pressure 30.12 in    
Wind  
Wind Speed 8 mph (WNW)    
Max Wind Speed 13 mph    
Max Gust Speed 21 mph    
Visibility 5 miles    
Events Snow    
Averages and records for this station are not official NWS values.
T = Trace of Precipitation, MM = Missing Value Source: NWS Daily Summary

Daily Weather History Graph

Daily Weather History Graph

Search for Another Location

Airport or City:

Trip Planner

Search our weather history database for the weather conditions in past years. The results will help you decide how hot, cold, wet, or windy it might be!

Date:

Astronomy

Nov. 27, 2013 Rise Set
Actual Time 7:46 AM EST 5:15 PM EST
Civil Twilight 7:15 AM EST 5:45 PM EST
Nautical Twilight 6:41 AM EST 6:20 PM EST
Astronomical Twilight 6:08 AM EST 6:53 PM EST
Moon 1:43 AM EST (11/27) 1:56 PM EST (11/27)
Length of Visible Light 10h 30m
Length of Day
9h 29m
Waning Crescent, 32% of the Moon is Illuminated
Nov 27
Waning Crescent
Dec 2
New
Dec 9
First Quarter
Dec 17
Full
Dec 25
Last Quarter

Hourly Weather History & Observations

Time (EST) Temp. Windchill Dew Point Humidity Pressure Visibility Wind Dir Wind Speed Gust Speed Precip Events Conditions
12:53 AM 27.0 °F 18.0 °F 18.0 °F 69% 30.03 in 10.0 mi NW 9.2 mph - N/A   Overcast
1:53 AM 26.1 °F 16.8 °F 19.9 °F 78% 30.01 in 10.0 mi NW 9.2 mph - N/A   Overcast
2:53 AM 25.0 °F 14.2 °F 19.0 °F 78% 30.03 in 10.0 mi North 11.5 mph 20.7 mph N/A   Overcast
3:53 AM 24.1 °F 13.7 °F 16.0 °F 71% 30.04 in 10.0 mi North 10.4 mph - N/A   Mostly Cloudy
4:53 AM 25.0 °F 14.2 °F 16.0 °F 69% 30.05 in 10.0 mi North 11.5 mph - N/A   Overcast
5:53 AM 24.1 °F 13.1 °F 16.0 °F 71% 30.06 in 10.0 mi North 11.5 mph - 0.00 in   Overcast
6:53 AM 24.1 °F 17.0 °F 17.1 °F 75% 30.09 in 10.0 mi North 5.8 mph - N/A   Overcast
7:53 AM 23.0 °F 13.9 °F 18.0 °F 81% 30.10 in 3.0 mi NNW 8.1 mph - 0.00 in Snow Light Snow
7:59 AM 23.0 °F 14.7 °F 17.6 °F 80% 30.07 in 1.8 mi NW 6.9 mph - 0.00 in Snow Light Snow
8:09 AM 23.0 °F 14.7 °F 17.6 °F 80% 30.07 in 0.8 mi NNW 6.9 mph - 0.00 in Snow Light Snow
8:17 AM 23.0 °F 15.8 °F 17.6 °F 80% 30.08 in 1.5 mi NW 5.8 mph - 0.00 in Snow Light Snow
8:40 AM 23.0 °F 15.8 °F 17.6 °F 80% 30.08 in 2.0 mi NW 5.8 mph - 0.00 in Snow Light Snow
8:46 AM 23.0 °F 15.8 °F 19.4 °F 86% 30.08 in 1.2 mi WNW 5.8 mph - 0.00 in Snow Light Snow
8:53 AM 23.0 °F 15.8 °F 19.0 °F 85% 30.12 in 1.0 mi WNW 5.8 mph - 0.00 in Snow Light Snow
9:01 AM 23.0 °F 13.9 °F 17.6 °F 80% 30.09 in 3.0 mi NW 8.1 mph - 0.00 in Snow Light Snow
9:18 AM 23.0 °F 13.9 °F 17.6 °F 80% 30.09 in 2.0 mi NW 8.1 mph - 0.00 in Snow Light Snow
9:28 AM 23.0 °F 14.7 °F 17.6 °F 80% 30.09 in 6.0 mi WNW 6.9 mph - 0.00 in Snow Light Snow
9:41 AM 23.0 °F 14.7 °F 17.6 °F 80% 30.09 in 6.0 mi WNW 6.9 mph - 0.00 in Snow Light Snow
9:53 AM 23.0 °F 13.1 °F 18.0 °F 81% 30.12 in 4.0 mi WNW 9.2 mph - 0.00 in Snow Light Snow
10:53 AM 25.0 °F 17.1 °F 18.0 °F 75% 30.11 in 10.0 mi NW 6.9 mph - 0.00 in   Overcast
11:42 AM 26.6 °F 17.5 °F 19.4 °F 74% 30.07 in 1.8 mi WNW 9.2 mph - 0.00 in Snow Light Snow
11:53 AM 25.0 °F 14.8 °F 19.9 °F 81% 30.10 in 1.8 mi WNW 10.4 mph - 0.00 in Snow Light Snow
11:57 AM 24.8 °F 14.0 °F 19.4 °F 80% 30.06 in 3.0 mi West 11.5 mph - 0.00 in Snow Light Snow
12:15 PM 24.8 °F 14.0 °F 19.4 °F 80% 30.06 in 2.5 mi NW 11.5 mph - 0.00 in Snow Light Snow
12:20 PM 24.8 °F 13.4 °F 19.4 °F 80% 30.06 in 1.2 mi WNW 12.7 mph - 0.00 in Snow Light Snow
12:38 PM 24.8 °F 14.0 °F 19.4 °F 80% 30.06 in 2.0 mi WNW 11.5 mph - 0.00 in Snow Light Snow
12:53 PM 26.1 °F 16.2 °F 21.0 °F 81% 30.09 in 9.0 mi WNW 10.4 mph - 0.00 in   Overcast
1:53 PM 28.0 °F 18.6 °F 21.0 °F 75% 30.09 in 10.0 mi West 10.4 mph - N/A   Overcast
2:53 PM 28.0 °F 18.1 °F 19.0 °F 69% 30.10 in 10.0 mi WNW 11.5 mph - N/A   Overcast
3:53 PM 27.0 °F 17.3 °F 21.0 °F 78% 30.12 in 10.0 mi WNW 10.4 mph - N/A   Mostly Cloudy
4:53 PM 27.0 °F 18.7 °F 21.9 °F 81% 30.15 in 2.0 mi WNW 8.1 mph - 0.00 in Snow Light Snow
5:01 PM 26.6 °F 17.5 °F 23.0 °F 86% 30.12 in 1.5 mi WNW 9.2 mph - 0.00 in Snow Light Snow
5:20 PM 26.6 °F 19.1 °F 23.0 °F 86% 30.13 in 3.0 mi West 6.9 mph - 0.00 in Snow Light Snow
5:30 PM 26.6 °F 20.0 °F 23.0 °F 86% 30.13 in 2.0 mi West 5.8 mph - 0.00 in Snow Light Snow
5:53 PM 26.1 °F 20.5 °F 23.0 °F 88% 30.17 in 6.0 mi West 4.6 mph - 0.00 in Snow Light Snow
6:44 PM 26.6 °F 16.8 °F 23.0 °F 86% 30.15 in 9.0 mi WNW 10.4 mph - N/A   Overcast
6:53 PM 27.0 °F 17.3 °F 23.0 °F 85% 30.19 in 7.0 mi WNW 10.4 mph - 0.00 in Snow Light Snow
7:04 PM 26.6 °F 17.5 °F 23.0 °F 86% 30.15 in 5.0 mi NW 9.2 mph - 0.00 in Snow Light Snow
7:21 PM 26.6 °F 18.2 °F 24.8 °F 93% 30.16 in 2.0 mi WNW 8.1 mph - 0.00 in Snow Light Snow
7:27 PM 26.6 °F 18.2 °F 23.0 °F 86% 30.16 in 3.0 mi WNW 8.1 mph - 0.00 in Snow Light Snow
7:53 PM 27.0 °F 19.5 °F 24.1 °F 89% 30.21 in 3.0 mi WNW 6.9 mph - 0.00 in Snow Light Snow
8:00 PM 26.6 °F 20.0 °F 24.8 °F 93% 30.17 in 4.0 mi WNW 5.8 mph - 0.00 in Snow Light Snow
8:12 PM 26.6 °F 20.0 °F 24.8 °F 93% 30.17 in 4.0 mi WNW 5.8 mph - 0.00 in Snow Light Snow
8:53 PM 27.0 °F 21.6 °F 24.1 °F 89% 30.22 in 1.8 mi West 4.6 mph - 0.00 in Snow Light Snow
8:58 PM 26.6 °F 20.0 °F 24.8 °F 93% 30.18 in 3.0 mi West 5.8 mph - 0.00 in Snow Light Snow
9:23 PM 26.6 °F 20.0 °F 21.2 °F 80% 30.18 in 6.0 mi WSW 5.8 mph - 0.00 in Snow Light Snow
9:45 PM 26.6 °F 21.2 °F 23.0 °F 86% 30.19 in 2.0 mi West 4.6 mph - 0.00 in Snow Light Snow
9:53 PM 26.1 °F 20.5 °F 21.9 °F 84% 30.23 in 3.0 mi West 4.6 mph - 0.00 in Snow Light Snow
9:58 PM 26.6 °F 22.6 °F 23.0 °F 86% 30.19 in 1.8 mi West 3.5 mph - 0.00 in Snow Light Snow
10:09 PM 26.6 °F 21.2 °F 21.2 °F 80% 30.20 in 3.0 mi WNW 4.6 mph - 0.00 in Snow Light Snow
10:38 PM 26.6 °F 22.6 °F 21.2 °F 80% 30.21 in 1.8 mi WNW 3.5 mph - 0.00 in Snow Light Snow
10:53 PM 26.1 °F - 21.9 °F 84% 30.25 in 2.0 mi Calm Calm - 0.00 in Snow Light Snow
11:04 PM 24.8 °F - 21.2 °F 86% 30.22 in 3.0 mi Calm Calm - 0.00 in Snow Light Snow
11:53 PM 25.0 °F 20.7 °F 21.0 °F 85% 30.25 in 10.0 mi SW 3.5 mph - 0.00 in   Overcast